Total_Precipitation_Accumulation
0.56 0.53 0.52 0.49 0.46 0.46 0.57 0.68 1.03 1.33 1.74 2.09 2.03 2.18 2.44 2.42 2.25 2.09 2.10 2.14 2.07 2.11 2.02 1.92 1.85 1.69 1.55 1.43 1.37 1.31 1.27 1.21 1.24 1.31 1.33 1.29 1.28 1.26 1.21 1.14 1.07 1.06 1.06 1.00
0.51 0.45 0.49 0.54 0.56 0.51 0.55 0.69 1.00 1.38 1.89 2.01 2.03 2.11 2.24 2.36 2.30 2.16 2.16 2.22 2.25 2.36 2.32 2.23 2.14 1.92 1.69 1.53 1.39 1.30 1.28 1.24 1.24 1.26 1.23 1.22 1.23 1.20 1.16 1.12 1.10 1.06 1.03 0.99
0.65 0.46 0.70 1.03 0.87 0.77 0.77 0.87 1.14 1.51 1.75 1.72 1.84 2.05 2.14 2.23 2.36 2.33 2.41 2.53 2.58 2.53 2.48 2.38 2.27 2.23 2.06 1.78 1.59 1.51 1.41 1.30 1.26 1.23 1.16 1.12 1.04 1.03 1.10 1.11 1.08 1.02 0.95 0.95
0.77 0.85 1.41 1.34 0.88 0.84 0.96 1.11 1.20 1.32 1.38 1.56 1.77 1.93 2.00 2.20 2.44 2.50 2.47 2.40 2.46 2.41 2.43 2.35 2.24 2.17 2.07 1.87 1.69 1.50 1.37 1.25 1.19 1.17 1.11 1.10 1.08 1.08 1.09 1.08 1.04 1.05 1.01 0.99
0.97 1.31 1.45 1.38 0.97 0.98 1.19 1.53 1.36 1.39 1.38 1.49 1.57 1.75 2.12 2.19 2.30 2.51 2.38 2.26 2.31 2.38 2.40 2.37 2.26 2.08 1.94 1.84 1.72 1.57 1.38 1.19 1.08 1.05 1.00 1.00 1.03 1.05 1.02 1.02 0.99 0.96 0.96 0.97
1.22 1.56 1.80 1.65 0.96 0.81 1.22 2.18 1.66 1.54 1.54 1.51 1.62 2.09 2.22 2.00 1.95 2.06 2.11 2.20 2.30 2.41 2.45 2.39 2.27 1.97 1.82 1.70 1.57 1.40 1.18 1.05 0.99 0.98 0.91 0.91 0.94 0.94 0.92 0.92 0.93 0.90 0.89 0.93
1.35 1.77 1.88 1.19 0.74 0.84 1.72 2.20 1.72 1.62 1.58 1.61 1.82 2.00 1.81 1.68 1.76 1.91 2.04 2.17 2.25 2.28 2.28 2.23 2.13 1.87 1.76 1.60 1.45 1.19 0.98 0.92 0.94 0.92 0.84 0.80 0.83 0.85 0.87 0.83 0.86 0.88 0.85 0.85
1.53 1.94 2.06 1.00 0.80 1.18 1.52 1.29 1.24 1.26 1.25 1.30 1.40 1.47 1.51 1.56 1.62 1.67 1.77 1.96 2.07 2.13 2.13 2.01 1.87 1.70 1.59 1.45 1.22 1.01 0.89 0.86 0.90 0.92 0.69 0.60 0.70 0.73 0.76 0.84 0.85 0.86 0.85 0.78
1.71 2.03 1.68 1.08 1.00 0.99 1.06 1.08 1.03 1.07 1.04 1.07 1.16 1.23 1.35 1.52 1.60 1.60 1.55 1.69 1.75 1.68 1.60 1.63 1.57 1.44 1.32 1.19 1.02 0.90 0.86 0.87 0.85 0.83 0.74 0.66 0.68 0.69 0.73 0.79 0.78 0.76 0.76 0.71
1.49 1.58 1.31 1.04 0.93 0.88 0.78 0.77 0.82 0.96 0.98 0.96 0.96 0.94 1.06 1.20 1.33 1.38 1.35 1.34 1.38 1.37 1.29 1.27 1.25 1.17 1.07 0.93 0.88 0.87 0.87 0.87 0.86 0.82 0.74 0.69 0.70 0.64 0.65 0.67 0.66 0.64 0.65 0.66
1.58 1.58 1.37 1.16 0.96 0.83 0.78 0.76 0.83 0.88 0.85 0.80 0.75 0.76 0.78 0.92 1.01 1.07 1.10 1.07 1.08 1.15 1.13 0.99 0.93 0.92 0.89 0.80 0.77 0.83 0.85 0.81 0.79 0.70 0.67 0.67 0.62 0.51 0.48 0.46 0.47 0.53 0.59 0.58
1.77 1.50 1.42 1.27 0.96 0.77 0.76 0.76 0.73 0.72 0.68 0.70 0.67 0.67 0.70 0.83 0.92 0.94 0.93 0.94 0.99 1.02 0.96 0.88 0.82 0.78 0.73 0.64 0.65 0.76 0.79 0.76 0.69 0.63 0.59 0.56 0.59 0.51 0.42 0.39 0.37 0.36 0.39 0.39
1.19 1.01 0.98 0.91 0.81 0.77 0.67 0.61 0.64 0.60 0.54 0.54 0.56 0.56 0.64 0.76 0.79 0.82 0.85 0.87 0.95 0.93 0.85 0.77 0.73 0.73 0.72 0.64 0.59 0.64 0.69 0.66 0.63 0.60 0.57 0.54 0.57 0.60 0.57 0.42 0.33 0.32 0.35 0.36
0.87 0.90 0.94 0.78 0.64 0.59 0.51 0.45 0.48 0.46 0.45 0.44 0.44 0.45 0.51 0.56 0.62 0.70 0.79 0.80 0.82 0.76 0.73 0.71 0.64 0.61 0.61 0.56 0.52 0.48 0.51 0.49 0.50 0.54 0.55 0.54 0.50 0.49 0.50 0.51 0.49 0.43 0.38 0.36
0.74 0.73 0.77 0.62 0.47 0.46 0.45 0.39 0.43 0.46 0.45 0.44 0.39 0.36 0.37 0.48 0.56 0.62 0.61 0.63 0.65 0.61 0.59 0.57 0.56 0.52 0.50 0.47 0.44 0.40 0.41 0.44 0.40 0.41 0.45 0.46 0.44 0.44 0.44 0.46 0.48 0.47 0.43 0.37
0.63 0.55 0.50 0.50 0.45 0.42 0.44 0.45 0.45 0.45 0.43 0.43 0.41 0.36 0.36 0.44 0.54 0.58 0.55 0.54 0.58 0.53 0.48 0.50 0.51 0.44 0.42 0.39 0.36 0.34 0.31 0.29 0.29 0.31 0.34 0.38 0.38 0.40 0.41 0.40 0.41 0.42 0.41 0.37
0.66 0.63 0.56 0.54 0.49 0.44 0.43 0.47 0.44 0.41 0.42 0.44 0.41 0.35 0.34 0.43 0.52 0.54 0.55 0.50 0.47 0.45 0.40 0.39 0.43 0.38 0.35 0.34 0.31 0.26 0.25 0.24 0.26 0.25 0.26 0.27 0.26 0.27 0.31 0.33 0.35 0.38 0.36 0.34
0.54 0.52 0.51 0.54 0.49 0.44 0.43 0.42 0.41 0.40 0.38 0.39 0.37 0.36 0.38 0.46 0.51 0.48 0.45 0.38 0.38 0.39 0.36 0.30 0.33 0.36 0.34 0.32 0.28 0.24 0.22 0.23 0.25 0.25 0.23 0.21 0.20 0.21 0.24 0.27 0.28 0.33 0.36 0.38
0.40 0.39 0.42 0.44 0.39 0.40 0.43 0.40 0.37 0.33 0.33 0.38 0.41 0.44 0.47 0.47 0.45 0.41 0.39 0.40 0.41 0.44 0.38 0.32 0.36 0.37 0.36 0.32 0.29 0.25 0.24 0.24 0.26 0.27 0.23 0.21 0.21 0.22 0.23 0.24 0.26 0.28 0.31 0.36
0.35 0.34 0.36 0.38 0.35 0.36 0.38 0.36 0.33 0.31 0.34 0.39 0.39 0.39 0.46 0.45 0.41 0.40 0.39 0.40 0.37 0.36 0.33 0.32 0.32 0.36 0.37 0.35 0.31 0.26 0.25 0.26 0.27 0.28 0.25 0.22 0.22 0.23 0.24 0.26 0.28 0.31 0.34 0.36
0.35 0.35 0.37 0.39 0.38 0.33 0.32 0.33 0.34 0.34 0.35 0.37 0.32 0.31 0.36 0.39 0.36 0.38 0.39 0.39 0.35 0.34 0.38 0.38 0.33 0.30 0.32 0.33 0.33 0.29 0.28 0.27 0.26 0.25 0.25 0.25 0.23 0.23 0.24 0.26 0.27 0.28 0.29 0.31
0.43 0.43 0.39 0.42 0.42 0.36 0.32 0.32 0.30 0.29 0.30 0.31 0.27 0.28 0.33 0.37 0.37 0.38 0.38 0.34 0.30 0.32 0.33 0.35 0.33 0.29 0.29 0.29 0.26 0.26 0.27 0.27 0.25 0.24 0.22 0.22 0.23 0.24 0.24 0.26 0.28 0.27 0.25 0.26
0.51 0.49 0.43 0.46 0.43 0.40 0.36 0.28 0.24 0.24 0.27 0.27 0.26 0.28 0.31 0.35 0.35 0.39 0.38 0.32 0.29 0.30 0.28 0.30 0.32 0.30 0.26 0.23 0.22 0.22 0.22 0.23 0.24 0.23 0.21 0.21 0.21 0.20 0.19 0.20 0.23 0.25 0.24 0.25
0.56 0.55 0.46 0.44 0.40 0.45 0.43 0.32 0.27 0.27 0.29 0.29 0.28 0.30 0.30 0.31 0.33 0.34 0.34 0.35 0.34 0.32 0.28 0.30 0.32 0.28 0.23 0.19 0.20 0.22 0.20 0.20 0.20 0.20 0.19 0.19 0.20 0.19 0.19 0.19 0.20 0.21 0.22 0.23
0.61 0.58 0.50 0.48 0.51 0.52 0.48 0.40 0.34 0.31 0.32 0.32 0.29 0.30 0.32 0.34 0.35 0.35 0.33 0.30 0.33 0.32 0.26 0.28 0.31 0.29 0.24 0.22 0.24 0.24 0.20 0.21 0.21 0.19 0.18 0.18 0.19 0.19 0.20 0.21 0.19 0.19 0.20 0.20
0.67 0.66 0.58 0.53 0.51 0.49 0.47 0.47 0.48 0.44 0.40 0.37 0.32 0.31 0.32 0.32 0.32 0.33 0.30 0.29 0.29 0.28 0.25 0.26 0.27 0.27 0.24 0.23 0.25 0.26 0.22 0.22 0.22 0.22 0.19 0.19 0.20 0.20 0.20 0.20 0.20 0.20 0.20 0.20
0.68 0.66 0.61 0.52 0.47 0.43 0.47 0.50 0.50 0.48 0.46 0.42 0.37 0.33 0.32 0.33 0.30 0.30 0.30 0.30 0.30 0.29 0.27 0.30 0.31 0.30 0.28 0.27 0.29 0.29 0.23 0.19 0.21 0.21 0.20 0.20 0.19 0.18 0.18 0.19 0.20 0.20 0.20 0.21